Location: Clifton Park
(41.4873°N, 81.8024°W)
Time: 21:25:19
(UTC+00:00)

STARLINK-38 - Pass Details

Date: 21 January 2020
Orbit: 528 x 531 km, 53.0° (Epoch: 25 February)

Event Time Altitude Azimuth Distance (km) Brightness Sun altitude
Exits shadow 11:25:57 26° 260° (W) 1,051 4.5 -15.3°
Maximum altitude 11:27:55 54° 327° (NNW) 648 3.7 -15.0°
Drops below altitude 10° 11:31:53 10° 45° (NE) 1,777 6.6 -14.2°
Sets 11:34:08 0° 50° (NE) 2,669 7.7 -13.8°
